Regional Weather Roundup
Issued by NWS New Orleans/Baton Rouge, LA

Home | Current Version | Previous Version | Graphics & Text | Print | Product List | Glossary On
Versions: 1 2 3 4 5 6 7 8 9 10 11 12 13 14 15 16 17 18 19 20 21 22 23 24 25 26 27 28 29 30 31 32 33 34 35 36 37 38 39 40 41 42 43 44 45 46 47 48 49 50
678
ASUS44 KLIX 010601
RWRLIX
NEW ORLEANS REGIONAL WEATHER ROUNDUP
NATIONAL WEATHER SERVICE NEW ORLEANS LA
100 AM CDT FRI AUG 01 2014

NOTE: "FAIR" INDICATES FEW OR NO CLOUDS BELOW 12,000 FEET WITH NO
      SIGNIFICANT WEATHER AND/OR OBSTRUCTIONS TO VISIBILITY.
      SKY/WX - SKY CONDITION AND SIGNIFICANT WEATHER.
      TMP - AIR TEMPERATURE.     DP    - DEWPOINT TEMPERATURE.
      RH  - RELATIVE HUMIDITY.   PRES  - PRESSURE.
      HI  - HEAT INDEX.          WCI   - WIND CHILL INDEX.

*  THESE STATIONS ARE NOT NWS OR FAA STATIONS AND ARE NOT UNDER
   NWS QUALITY CONTROL.

LAZ038-040-048-061>063-065>067-069-010700-
SOUTHEAST LOUISIANA

CITY           SKY/WX    TMP DP  RH WIND       PRES   REMARKS
N.O. AUDUBON     N/A     82  69  65 MISG        N/A
6HR MIN TEMP:  81; 6HR MAX TEMP:  87;

N.O. INTL ARPT CLOUDY    79  69  71 SE3       29.99F
6HR MIN TEMP:  79; 6HR MAX TEMP:  84;

N.O. LAKEFRONT CLOUDY    81  69  67 SE3       30.00F
6HR MIN TEMP:  80; 6HR MAX TEMP:  87;

N.O. DOWNTOWN*   N/A     82  66  57 S5        30.00F
6HR MIN TEMP:  81; 6HR MAX TEMP:  88;

SLIDELL        CLOUDY    75  67  76 CALM      29.99F
6HR MIN TEMP:  73; 6HR MAX TEMP:  83;

BATON ROUGE    CLOUDY    76  67  73 E6        30.00S
6HR MIN TEMP:  75; 6HR MAX TEMP:  82;

BOOTHVILLE     CLEAR     77  68  73 SE5       30.00F
6HR MIN TEMP:  77; 6HR MAX TEMP:  84;

BELLE CHASSE   MOCLDY    75  71  87 CALM      29.99F
6HR MIN TEMP:  74; 6HR MAX TEMP:  84;

BOGALUSA*        N/A     73  68  84 CALM      30.02F
6HR MIN TEMP:  73; 6HR MAX TEMP:  82;

GALLIANO*      NOT AVBL
NEW ROADS*     MOCLDY    76  68  76 E3        30.00S
6HR MIN TEMP:  75; 6HR MAX TEMP:  82;

GONZALES*        N/A     75  73  92 CALM      29.99S
6HR MIN TEMP:  75; 6HR MAX TEMP:  86;

HAMMOND*       NOT AVBL
HOUMA*         MOCLDY    75  69  80 CALM      29.99F
6HR MIN TEMP:  74; 6HR MAX TEMP:  84;

PORT FOURCHON* CLEAR     82  68  61 SE5       30.00F

$$

MSZ070-080>082-010700-
SOUTHERN MISSISSIPPI

CITY           SKY/WX    TMP DP  RH WIND       PRES   REMARKS
MCCOMB         CLOUDY    73  64  73 E3        30.01F
6HR MIN TEMP:  73; 6HR MAX TEMP:  78;

GULFPORT       CLOUDY    79  68  69 CALM      29.99F
6HR MIN TEMP:  77; 6HR MAX TEMP:  85;

BILOXI         CLOUDY    76  67  74 NE5       29.99F
6HR MIN TEMP:  76; 6HR MAX TEMP:  82;

PASCAGOULA     MOCLDY    68  67  96 CALM      30.00F
6HR MIN TEMP:  68; 6HR MAX TEMP:  81;


$$

COASTAL OBSERVATIONS
LAKE AND NEARSHORE STATIONS

STATION/POSITION TIME  TEMP    WIND        PRES    WAVE
                       AIR SEA DIR/SP/G            HT/PER
                 (UTC) (F)     (DEG/KT/KT) (MB)    (FT/S)
PASCAGOULA       0500   75     350/  5/  6 1015.2
WAVELAND YACHT   0500   79      50/  8/  9 1015.3
GRAND ISLE       0500   82 87  120/  3/  5 1016.4
SOUTHWEST PASS   0500   81 85  100/  7/  7 1016.0
NEW CANAL        0500   81 83  160/  3/  4 1016.1
SHELL BEACH      0500   80 82  130/  2/  3 1015.7

OFFSHORE STATIONS

STATION/POSITION TIME  TEMP    WIND        PRES    WAVE
                       AIR SEA DIR/SP/G            HT/PER
                 (UTC) (F)     (DEG/KT/KT) (MB)    (FT/S)
64 S DAUPHIN ISL 0546   82 84  360/  2/  4 1015.5

$$




USA.gov is the U.S. government's official web portal to all federal, state and local government web resources and services.